When you browse on this site, cookies collect data to enhance your experience and personalize the content and advertising you see.
Visit our Privacy Policy to learn more. By continuing to use the site, you agree to this use of cookies and data.
  • în România
  • Lista ţărilor
  • Pe 7 zile
  • Temperatura apei
  • Hartă satelitară
  • Meteo pe hartă
  • Widget-uri
  • user-avatar
    Intrare

    Meteo pe oră la Timiryazevskiy

    Astăzi, 26 Martie, Marţi

    Timp Temperatura Precipitaţii Vânt Presiune Umiditate
    00:00 -6°C° 0 mm 3 m/s 742 mmHg 93%
    01:00 -7°C° 0 mm 3 m/s 742 mmHg 91%
    02:00 -7°C° 0 mm 3 m/s 743 mmHg 90%
    03:00 -6°C° 0 mm 2 m/s 743 mmHg 88%
    04:00 -5°C° 0 mm 2 m/s 743 mmHg 87%
    05:00 -5°C° 0 mm 2 m/s 743 mmHg 86%
    06:00 -4°C° 0 mm 2 m/s 743 mmHg 85%
    07:00 -4°C° 0 mm 3 m/s 743 mmHg 86%
    08:00 -2°C° 0 mm 3 m/s 743 mmHg 88%
    09:00 -1°C° 0 mm 4 m/s 743 mmHg 91%
    10:00 -1°C° 0.1 mm 5 m/s 743 mmHg 94%
    11:00 -1°C° 0.1 mm 5 m/s 742 mmHg 96%
    12:00 -2°C° 0.1 mm 6 m/s 742 mmHg 99%
    13:00 -1°C° 0.4 mm 6 m/s 742 mmHg 99%
    14:00 -1°C° 0.4 mm 6 m/s 741 mmHg 99%
    15:00 -1°C° 0.4 mm 6 m/s 741 mmHg 99%
    16:00 -1°C° 0.4 mm 6 m/s 741 mmHg 99%
    17:00 0°C° 0.4 mm 5 m/s 741 mmHg 99%
    18:00 0°C° 0.4 mm 5 m/s 741 mmHg 99%
    19:00 0°C° 0.3 mm 5 m/s 742 mmHg 99%
    20:00 0°C° 0.3 mm 4 m/s 742 mmHg 99%
    21:00 +1°C° 0.3 mm 3 m/s 742 mmHg 99%
    22:00 +1°C° 0.5 mm 3 m/s 743 mmHg 99%
    23:00 0°C° 0.5 mm 3 m/s 743 mmHg 99%

    Mâine, 27 Martie, Miercuri

    Timp Temperatura Precipitaţii Vânt Presiune Umiditate
    00:00 +1°C° 0.5 mm 2 m/s 743 mmHg 99%
    01:00 +1°C° 0.9 mm 2 m/s 743 mmHg 99%
    02:00 +2°C° 0.9 mm 2 m/s 743 mmHg 99%
    03:00 +2°C° 0.9 mm 2 m/s 742 mmHg 99%
    04:00 +2°C° 1 mm 2 m/s 742 mmHg 99%
    05:00 +1°C° 1 mm 3 m/s 742 mmHg 99%
    06:00 +1°C° 1 mm 3 m/s 742 mmHg 98%
    07:00 -1°C° 0.8 mm 4 m/s 742 mmHg 98%
    08:00 -1°C° 0.8 mm 4 m/s 742 mmHg 98%
    09:00 -1°C° 0.8 mm 4 m/s 743 mmHg 97%
    10:00 -1°C° 0.5 mm 4 m/s 743 mmHg 98%
    11:00 -1°C° 0.5 mm 4 m/s 743 mmHg 98%
    12:00 -1°C° 0.5 mm 4 m/s 743 mmHg 99%
    13:00 -1°C° 0.6 mm 4 m/s 743 mmHg 99%
    14:00 0°C° 0.6 mm 3 m/s 743 mmHg 99%
    15:00 +1°C° 0.6 mm 2 m/s 743 mmHg 99%
    16:00 +1°C° 1.1 mm 2 m/s 743 mmHg 99%
    17:00 +2°C° 1.1 mm 1 m/s 743 mmHg 98%
    18:00 +2°C° 1.1 mm 1 m/s 743 mmHg 98%
    19:00 +2°C° 0.9 mm 1 m/s 743 mmHg 98%
    20:00 +2°C° 0.9 mm 1 m/s 743 mmHg 98%
    21:00 +2°C° 0.9 mm 1 m/s 743 mmHg 99%
    22:00 +2°C° 0.7 mm 1 m/s 743 mmHg 98%
    23:00 +1°C° 0.7 mm 2 m/s 743 mmHg 98%

    Poimâine, 28 Martie, Joi

    Timp Temperatura Precipitaţii Vânt Presiune Umiditate
    00:00 +1°C° 0.7 mm 2 m/s 743 mmHg 98%
    01:00 +1°C° 0.4 mm 2 m/s 743 mmHg 98%
    02:00 0°C° 0.4 mm 3 m/s 743 mmHg 97%
    03:00 0°C° 0.4 mm 3 m/s 743 mmHg 97%
    04:00 -2°C° 0.1 mm 4 m/s 743 mmHg 96%
    05:00 -2°C° 0.1 mm 4 m/s 743 mmHg 96%
    06:00 -2°C° 0.1 mm 5 m/s 743 mmHg 95%
    07:00 -2°C° 0 mm 5 m/s 743 mmHg 96%
    08:00 -2°C° 0 mm 5 m/s 743 mmHg 96%
    09:00 -2°C° 0 mm 5 m/s 743 mmHg 97%
    10:00 -2°C° 0.1 mm 5 m/s 743 mmHg 98%
    11:00 -2°C° 0.1 mm 5 m/s 743 mmHg 98%
    12:00 -1°C° 0.1 mm 5 m/s 744 mmHg 99%
    13:00 -2°C° 0.3 mm 6 m/s 744 mmHg 97%
    14:00 -2°C° 0.3 mm 6 m/s 744 mmHg 95%
    15:00 -2°C° 0.3 mm 6 m/s 744 mmHg 93%
    16:00 -3°C° 0.1 mm 6 m/s 744 mmHg 91%
    17:00 -3°C° 0.1 mm 6 m/s 744 mmHg 89%
    18:00 -3°C° 0.1 mm 6 m/s 744 mmHg 87%
    19:00 -4°C° 0 mm 6 m/s 745 mmHg 88%
    20:00 -4°C° 0 mm 6 m/s 745 mmHg 89%
    21:00 -5°C° 0 mm 6 m/s 745 mmHg 90%
    22:00 -6°C° 0 mm 6 m/s 745 mmHg 90%
    23:00 -7°C° 0 mm 5 m/s 745 mmHg 90%

    29 Martie, Vineri

    Timp Temperatura Precipitaţii Vânt Presiune Umiditate
    00:00 -7°C° 0 mm 5 m/s 745 mmHg 91%
    01:00 -8°C° 0 mm 5 m/s 746 mmHg 92%
    02:00 -8°C° 0 mm 5 m/s 746 mmHg 92%
    03:00 -10°C° 0 mm 5 m/s 746 mmHg 93%
    04:00 -10°C° 0 mm 5 m/s 746 mmHg 94%
    05:00 -10°C° 0 mm 5 m/s 746 mmHg 94%
    06:00 -10°C° 0 mm 5 m/s 746 mmHg 95%
    07:00 -8°C° 0 mm 5 m/s 747 mmHg 95%
    08:00 -7°C° 0 mm 5 m/s 747 mmHg 94%
    09:00 -6°C° 0 mm 6 m/s 747 mmHg 94%
    10:00 -5°C° 0 mm 6 m/s 747 mmHg 93%
    11:00 -5°C° 0 mm 6 m/s 747 mmHg 93%
    12:00 -4°C° 0 mm 6 m/s 748 mmHg 92%
    13:00 -4°C° 0 mm 5 m/s 747 mmHg 90%
    14:00 -4°C° 0 mm 5 m/s 747 mmHg 88%
    15:00 -4°C° 0 mm 5 m/s 747 mmHg 86%
    16:00 -3°C° 0 mm 4 m/s 747 mmHg 86%
    17:00 -4°C° 0 mm 4 m/s 747 mmHg 87%
    18:00 -5°C° 0 mm 3 m/s 747 mmHg 87%
    19:00 -6°C° 0 mm 3 m/s 748 mmHg 88%
    20:00 -6°C° 0 mm 3 m/s 748 mmHg 89%
    21:00 -7°C° 0 mm 3 m/s 748 mmHg 90%
    22:00 -5°C° 0 mm 2 m/s 748 mmHg 91%
    23:00 -5°C° 0 mm 2 m/s 748 mmHg 92%

    30 Martie, Sâmbătă

    Timp Temperatura Precipitaţii Vânt Presiune Umiditate
    00:00 -5°C° 0 mm 2 m/s 747 mmHg 93%
    01:00 -4°C° 0 mm 2 m/s 747 mmHg 93%
    02:00 -4°C° 0 mm 2 m/s 747 mmHg 93%
    03:00 -3°C° 0 mm 2 m/s 747 mmHg 93%
    04:00 -3°C° 0 mm 2 m/s 747 mmHg 93%
    05:00 -4°C° 0 mm 3 m/s 747 mmHg 93%
    06:00 -4°C° 0 mm 3 m/s 747 mmHg 93%
    07:00 -2°C° 0 mm 3 m/s 747 mmHg 94%
    08:00 -3°C° 0 mm 4 m/s 747 mmHg 95%
    09:00 -2°C° 0 mm 4 m/s 747 mmHg 97%
    10:00 -1°C° 0.1 mm 4 m/s 747 mmHg 97%
    11:00 -1°C° 0.1 mm 4 m/s 747 mmHg 98%
    12:00 -1°C° 0.1 mm 5 m/s 747 mmHg 99%
    13:00 -1°C° 0 mm 5 m/s 747 mmHg 99%
    14:00 -1°C° 0 mm 5 m/s 747 mmHg 99%
    15:00 -1°C° 0 mm 5 m/s 747 mmHg 98%
    16:00 -1°C° 0 mm 5 m/s 747 mmHg 97%
    17:00 -1°C° 0 mm 5 m/s 747 mmHg 97%
    18:00 -1°C° 0 mm 5 m/s 746 mmHg 96%
    19:00 0°C° 0 mm 5 m/s 747 mmHg 94%
    20:00 0°C° 0 mm 5 m/s 747 mmHg 92%
    21:00 0°C° 0 mm 5 m/s 747 mmHg 90%
    22:00 0°C° 0 mm 5 m/s 747 mmHg 90%
    23:00 0°C° 0 mm 5 m/s 747 mmHg 90%

    31 Martie, Duminică

    Timp Temperatura Precipitaţii Vânt Presiune Umiditate
    00:00 0°C° 0 mm 5 m/s 747 mmHg 89%
    01:00 0°C° 0 mm 5 m/s 747 mmHg 91%
    02:00 0°C° 0 mm 5 m/s 747 mmHg 92%
    03:00 -1°C° 0 mm 4 m/s 747 mmHg 93%
    04:00 -1°C° 0 mm 4 m/s 747 mmHg 94%
    05:00 -1°C° 0 mm 4 m/s 747 mmHg 95%
    06:00 -1°C° 0 mm 4 m/s 747 mmHg 96%
    07:00 0°C° 0 mm 3 m/s 747 mmHg 97%
    08:00 +1°C° 0 mm 3 m/s 747 mmHg 98%
    09:00 +1°C° 0 mm 3 m/s 748 mmHg 99%
    10:00 +2°C° 0 mm 3 m/s 748 mmHg 98%
    11:00 +2°C° 0 mm 3 m/s 748 mmHg 98%
    12:00 +3°C° 0 mm 3 m/s 748 mmHg 98%
    13:00 +3°C° 0 mm 3 m/s 747 mmHg 97%
    14:00 +4°C° 0 mm 3 m/s 747 mmHg 97%
    15:00 +5°C° 0 mm 3 m/s 747 mmHg 96%
    16:00 +4°C° 0 mm 3 m/s 747 mmHg 96%
    17:00 +4°C° 0 mm 3 m/s 747 mmHg 95%
    18:00 +4°C° 0 mm 2 m/s 747 mmHg 95%
    19:00 +3°C° 0 mm 3 m/s 747 mmHg 92%
    20:00 +3°C° 0 mm 3 m/s 747 mmHg 89%
    21:00 +3°C° 0 mm 3 m/s 747 mmHg 86%
    22:00 +2°C° 0 mm 3 m/s 747 mmHg 85%
    23:00 +2°C° 0 mm 3 m/s 747 mmHg 83%
    Arată mai mult